When you browse on this site, cookies collect data to enhance your experience and personalize the content and advertising you see.
Visit our Privacy Policy to learn more. By continuing to use the site, you agree to this use of cookies and data.

Hourly Weather Rusobino

Today, 4 July, Saturday

Time Temperature Precipitation Wind Pressure Humidity
00:00 +18°C° 0.6 mm 1 mps 740 mmHg 96%
01:00 +18°C° 0.6 mm 1 mps 740 mmHg 97%
02:00 +18°C° 0.6 mm 1 mps 740 mmHg 98%
03:00 +18°C° 2.9 mm 1 mps 740 mmHg 98%
04:00 +18°C° 2.9 mm 1 mps 740 mmHg 99%
05:00 +18°C° 2.9 mm 1 mps 739 mmHg 99%
06:00 +18°C° 0.3 mm 1 mps 740 mmHg 98%
07:00 +19°C° 0.3 mm 1 mps 740 mmHg 97%
08:00 +19°C° 0.3 mm 1 mps 740 mmHg 96%
09:00 +21°C° 0.1 mm 1 mps 740 mmHg 86%
10:00 +23°C° 0.1 mm 1 mps 740 mmHg 77%
11:00 +24°C° 0.1 mm 1 mps 740 mmHg 67%
12:00 +25°C° 0 mm 1 mps 740 mmHg 61%
13:00 +26°C° 0 mm 1 mps 740 mmHg 55%
14:00 +27°C° 0 mm 1 mps 740 mmHg 49%
15:00 +26°C° 0 mm 1 mps 740 mmHg 53%
16:00 +26°C° 0 mm 1 mps 740 mmHg 57%
17:00 +26°C° 0 mm 1 mps 740 mmHg 61%
18:00 +24°C° 0 mm 1 mps 740 mmHg 67%
19:00 +22°C° 0 mm 1 mps 740 mmHg 72%
20:00 +20°C° 0 mm 1 mps 740 mmHg 78%
21:00 +19°C° 0 mm 1 mps 740 mmHg 81%
22:00 +18°C° 0 mm 1 mps 740 mmHg 84%
23:00 +18°C° 0 mm 1 mps 740 mmHg 86%

Tomorrow, 5 July, Sunday

Time Temperature Precipitation Wind Pressure Humidity
00:00 +16°C° 0 mm 1 mps 740 mmHg 86%
01:00 +16°C° 0 mm 1 mps 741 mmHg 86%
02:00 +16°C° 0 mm 1 mps 741 mmHg 86%
03:00 +16°C° 0 mm 1 mps 741 mmHg 85%
04:00 +18°C° 0 mm 1 mps 741 mmHg 85%
05:00 +16°C° 0 mm 0 mps 741 mmHg 84%
06:00 +20°C° 0 mm 1 mps 741 mmHg 77%
07:00 +22°C° 0 mm 1 mps 741 mmHg 69%
08:00 +23°C° 0 mm 2 mps 741 mmHg 62%
09:00 +24°C° 0 mm 2 mps 740 mmHg 59%
10:00 +25°C° 0 mm 3 mps 740 mmHg 56%
11:00 +26°C° 0 mm 3 mps 740 mmHg 53%
12:00 +27°C° 0 mm 3 mps 740 mmHg 52%
13:00 +27°C° 0 mm 3 mps 739 mmHg 51%
14:00 +27°C° 0 mm 3 mps 739 mmHg 49%
15:00 +27°C° 0 mm 3 mps 739 mmHg 52%
16:00 +26°C° 0 mm 3 mps 739 mmHg 56%
17:00 +26°C° 0 mm 2 mps 739 mmHg 59%
18:00 +24°C° 0.1 mm 2 mps 738 mmHg 69%
19:00 +21°C° 0.1 mm 2 mps 738 mmHg 78%
20:00 +20°C° 0.1 mm 1 mps 738 mmHg 88%
21:00 +19°C° 0 mm 1 mps 738 mmHg 90%
22:00 +18°C° 0 mm 1 mps 738 mmHg 92%
23:00 +16°C° 0 mm 1 mps 738 mmHg 94%

Day after tomorrow, 6 July, Monday

Time Temperature Precipitation Wind Pressure Humidity
00:00 +16°C° 0 mm 2 mps 738 mmHg 95%
01:00 +16°C° 0 mm 2 mps 738 mmHg 96%
02:00 +16°C° 0 mm 2 mps 738 mmHg 97%
03:00 +16°C° 0 mm 2 mps 738 mmHg 96%
04:00 +17°C° 0 mm 2 mps 738 mmHg 95%
05:00 +17°C° 0 mm 2 mps 738 mmHg 93%
06:00 +19°C° 0 mm 3 mps 738 mmHg 86%
07:00 +21°C° 0 mm 3 mps 738 mmHg 78%
08:00 +22°C° 0 mm 3 mps 738 mmHg 71%
09:00 +23°C° 0 mm 4 mps 738 mmHg 67%
10:00 +26°C° 0 mm 4 mps 738 mmHg 62%
11:00 +27°C° 0 mm 4 mps 738 mmHg 58%
12:00 +27°C° 0 mm 4 mps 738 mmHg 58%
13:00 +27°C° 0 mm 5 mps 737 mmHg 59%
14:00 +28°C° 0 mm 5 mps 737 mmHg 59%
15:00 +27°C° 0.2 mm 4 mps 737 mmHg 65%
16:00 +26°C° 0.2 mm 4 mps 737 mmHg 70%
17:00 +25°C° 0.2 mm 4 mps 737 mmHg 76%
18:00 +24°C° 0.1 mm 3 mps 737 mmHg 79%
19:00 +22°C° 0.1 mm 3 mps 736 mmHg 83%
20:00 +22°C° 0.1 mm 3 mps 736 mmHg 86%
21:00 +21°C° 0.3 mm 3 mps 736 mmHg 88%
22:00 +21°C° 0.3 mm 3 mps 736 mmHg 89%
23:00 +21°C° 0.3 mm 3 mps 736 mmHg 91%

7 July, Tuesday

Time Temperature Precipitation Wind Pressure Humidity
00:00 +20°C° 0.1 mm 3 mps 736 mmHg 92%
01:00 +20°C° 0.1 mm 3 mps 736 mmHg 92%
02:00 +20°C° 0.1 mm 3 mps 736 mmHg 93%
03:00 +20°C° 0.5 mm 3 mps 736 mmHg 94%
04:00 +20°C° 0.5 mm 3 mps 736 mmHg 95%
05:00 +20°C° 0.5 mm 3 mps 736 mmHg 95%
06:00 +20°C° 0.2 mm 3 mps 736 mmHg 94%
07:00 +20°C° 0.2 mm 2 mps 736 mmHg 92%
08:00 +21°C° 0.2 mm 2 mps 736 mmHg 91%
09:00 +21°C° 0.3 mm 2 mps 736 mmHg 90%
10:00 +21°C° 0.3 mm 2 mps 737 mmHg 89%
11:00 +21°C° 0.3 mm 3 mps 737 mmHg 89%
12:00 +21°C° 0.3 mm 2 mps 737 mmHg 88%
13:00 +20°C° 0.3 mm 2 mps 737 mmHg 87%
14:00 +20°C° 0.3 mm 2 mps 737 mmHg 87%
15:00 +20°C° 0 mm 2 mps 737 mmHg 83%
16:00 +20°C° 0 mm 2 mps 737 mmHg 79%
17:00 +20°C° 0 mm 2 mps 737 mmHg 76%
18:00 +20°C° 0 mm 2 mps 737 mmHg 77%
19:00 +19°C° 0 mm 2 mps 737 mmHg 78%
20:00 +18°C° 0 mm 2 mps 737 mmHg 80%
21:00 +17°C° 0 mm 2 mps 738 mmHg 79%
22:00 +18°C° 0 mm 1 mps 738 mmHg 79%
23:00 +16°C° 0 mm 1 mps 738 mmHg 78%

8 July, Wednesday

Time Temperature Precipitation Wind Pressure Humidity
00:00 +16°C° 0 mm 1 mps 738 mmHg 79%
01:00 +15°C° 0 mm 1 mps 738 mmHg 80%
02:00 +15°C° 0 mm 2 mps 738 mmHg 80%
03:00 +15°C° 0 mm 2 mps 739 mmHg 79%
04:00 +15°C° 0 mm 2 mps 739 mmHg 78%
05:00 +15°C° 0 mm 2 mps 739 mmHg 77%
06:00 +16°C° 0 mm 2 mps 739 mmHg 72%
07:00 +17°C° 0 mm 2 mps 739 mmHg 68%
08:00 +18°C° 0 mm 2 mps 739 mmHg 64%
09:00 +19°C° 0 mm 2 mps 739 mmHg 59%
10:00 +20°C° 0 mm 2 mps 739 mmHg 55%
11:00 +21°C° 0 mm 2 mps 739 mmHg 50%
12:00 +22°C° 0 mm 3 mps 739 mmHg 49%
13:00 +22°C° 0 mm 3 mps 739 mmHg 47%
14:00 +22°C° 0 mm 3 mps 739 mmHg 45%
15:00 +22°C° 0 mm 3 mps 739 mmHg 47%
16:00 +21°C° 0 mm 3 mps 739 mmHg 49%
17:00 +21°C° 0 mm 2 mps 739 mmHg 51%
18:00 +19°C° 0 mm 2 mps 739 mmHg 59%
19:00 +17°C° 0 mm 2 mps 739 mmHg 67%
20:00 +15°C° 0 mm 2 mps 739 mmHg 76%
21:00 +14°C° 0 mm 2 mps 739 mmHg 76%
22:00 +13°C° 0 mm 1 mps 739 mmHg 77%
23:00 +12°C° 0 mm 1 mps 740 mmHg 78%

9 July, Thursday

Time Temperature Precipitation Wind Pressure Humidity
00:00 +12°C° 0 mm 1 mps 740 mmHg 82%
01:00 +11°C° 0 mm 1 mps 739 mmHg 86%
02:00 +11°C° 0 mm 1 mps 739 mmHg 90%
03:00 +10°C° 0.1 mm 2 mps 739 mmHg 91%
04:00 +10°C° 0.1 mm 2 mps 739 mmHg 91%
05:00 +11°C° 0.1 mm 3 mps 739 mmHg 92%
06:00 +12°C° 0 mm 3 mps 739 mmHg 85%
07:00 +13°C° 0 mm 4 mps 739 mmHg 78%
08:00 +14°C° 0 mm 4 mps 739 mmHg 71%
09:00 +14°C° 0 mm 4 mps 739 mmHg 68%
10:00 +14°C° 0 mm 4 mps 739 mmHg 66%
11:00 +14°C° 0 mm 4 mps 740 mmHg 63%
12:00 +17°C° 0 mm 4 mps 740 mmHg 59%
13:00 +17°C° 0 mm 5 mps 740 mmHg 55%
14:00 +19°C° 0 mm 5 mps 740 mmHg 51%
15:00 +19°C° 0 mm 5 mps 740 mmHg 54%
16:00 +19°C° 0 mm 4 mps 740 mmHg 56%
17:00 +19°C° 0 mm 4 mps 740 mmHg 58%
18:00 +17°C° 0 mm 3 mps 740 mmHg 65%
19:00 +16°C° 0 mm 2 mps 740 mmHg 72%
20:00 +14°C° 0 mm 2 mps 740 mmHg 79%
21:00 +13°C° 0 mm 2 mps 740 mmHg 80%
22:00 +13°C° 0 mm 2 mps 740 mmHg 82%
23:00 +12°C° 0 mm 2 mps 740 mmHg 84%
Show more